Home   Weather   Milwaukee   Past weeks
Flag for USA

Past Weather in Milwaukee, Wisconsin, USA — Yesterday and Last 2 Weeks

Now
63 °F

Sunny.


Feels Like: 63 °F
Forecast: 74 / 45 °F
Wind: 12 mph from South

Location: Milwaukee / Timmerman

Current Time: May 22, 2019 at 2:01:28 pm

Latest Report: May 22, 2019 at 12:45 pm


Visibility: 10 mi

Pressure: 29.83 "Hg

Humidity: 73%

Dew Point: 54 °F

Location of MilwaukeeLocation

Past Weather in Milwaukee — Graph

°F

Milwaukee Temperature Yesterday

Maximum temperature yesterday: 54 °F (at 2:45 pm)
Minimum temperature yesterday: 41 °F (at 12:15 am)
Average temperature yesterday: 46 °F

High & Low Weather Summary for the Past Weeks

 TemperatureHumidityPressure
High75 °F (May 16, 3:45 pm)100% (May 9, 12:45 pm)30.33 "Hg (May 9, 12:45 pm)
Low36 °F (May 12, 5:35 am)20% (May 11, 5:45 pm)26.69 "Hg (May 9, 12:45 pm)
Average48 °F66%29.94 "Hg
* Reported May 7 12:45 pm — May 22 12:45 pm, Milwaukee. Weather by CustomWeather, © 2019

Note: Actual official high and low records may vary slightly from our data, if they occured in-between our weather recording intervals... More about our weather records

Advertising

Milwaukee Weather History for the Previous 24 Hours

Scroll right to see more
 ConditionsComfort  
Time TempWeatherWind HumidityBarometerVisibility
12:45 pm
Wed, May 22
63 °FSunny.12 mph73%29.83 "Hg10 mi
12:20 pm61 °FScattered clouds.13 mph77%29.83 "Hg10 mi
12:15 pm61 °FPartly sunny.15 mph77%29.83 "Hg10 mi
11:45 am54 °FLow clouds.7 mph94%29.83 "Hg7 mi
11:20 am52 °FFog.8 mph94%29.84 "Hg5 mi
10:45 am52 °FFog.9 mph88%29.84 "Hg1 mi
9:45 am48 °FFog.9 mph94%29.85 "Hg1 mi
8:45 am46 °FDrizzle. Fog.9 mph93%29.86 "Hg1 mi
7:45 am46 °FFog.6 mph93%29.89 "Hg1 mi
7:15 am45 °FLow clouds.7 mph93%29.88 "Hg7 mi
6:55 am45 °FLow clouds.8 mph93%29.88 "Hg10 mi
6:35 am45 °FLow clouds.9 mph93%29.89 "Hg10 mi
6:15 am45 °FLow clouds.8 mph93%29.89 "Hg10 mi
5:55 am45 °FLow clouds.12 mph93%29.89 "Hg10 mi
5:35 am45 °FOvercast.6 mph93%29.89 "Hg10 mi
5:15 am45 °FOvercast.3 mph93%29.89 "Hg10 mi
4:55 am45 °FOvercast.10 mph93%29.88 "Hg10 mi
4:35 am45 °FLow clouds.12 mph93%29.88 "Hg10 mi
4:15 am45 °FLight rain. Mostly cloudy.15 mph93%29.82 "Hg10 mi
3:55 am45 °FLight rain. Overcast.16 mph93%29.82 "Hg10 mi
3:35 am45 °FRain. Overcast.18 mph93%29.86 "Hg5 mi
3:15 am45 °FRain. Mostly cloudy.13 mph93%29.89 "Hg7 mi
2:35 am45 °FRain. Mostly cloudy.8 mph93%29.92 "Hg5 mi
2:15 am45 °FRain. Mostly cloudy.7 mph93%29.94 "Hg5 mi
1:35 am45 °FRain. Overcast.7 mph93%29.99 "Hg4 mi
1:15 am46 °FHeavy rain. Mostly cloudy.6 mph82%30.00 "Hg2 mi
12:55 am48 °FRain. Overcast.17 mph66%30.00 "Hg7 mi
12:35 am50 °FDrizzle. Overcast.14 mph62%29.91 "Hg10 mi
12:15 am52 °FDrizzle. Overcast.14 mph54%29.94 "Hg10 mi
11:55 pm
Tue, May 21
52 °FOvercast.12 mph54%29.94 "Hg10 mi
11:35 pm52 °FOvercast.15 mph54%29.95 "Hg10 mi
11:15 pm52 °FPassing clouds.10 mph54%29.97 "Hg10 mi
10:55 pm50 °FMostly cloudy.12 mph58%29.95 "Hg10 mi
10:35 pm52 °FOvercast.12 mph54%29.98 "Hg10 mi
10:15 pm50 °FOvercast.10 mph58%30.00 "Hg10 mi
9:55 pm50 °FOvercast.12 mph58%29.99 "Hg10 mi
9:35 pm50 °FOvercast.7 mph58%30.00 "Hg10 mi
9:15 pm50 °FOvercast.8 mph58%30.01 "Hg10 mi
7:45 pm48 °FMostly cloudy.9 mph62%30.03 "Hg10 mi
6:45 pm50 °FOvercast.9 mph54%30.04 "Hg10 mi
5:45 pm48 °FOvercast.8 mph58%30.06 "Hg10 mi
4:45 pm50 °FMostly cloudy.8 mph58%30.10 "Hg10 mi
3:45 pm52 °FMore clouds than sun.12 mph54%30.11 "Hg10 mi
2:45 pm54 °FOvercast.10 mph51%30.13 "Hg10 mi
Weather by CustomWeather, © 2019

See weather overview